Location: Bosdarros
(43.2167°N, 0.3667°W)
Time: 11:48:00
(UTC+00:00)

FENGYUN 1C DEB - Pass Details

Date: 26 October 2021
Orbit: 805 x 871 km, 98.8° (Epoch: 26 November)

Event Time Altitude Azimuth Distance (km) Brightness Sun altitude
Exits shadow 18:33:09 29° 98° (E) 1,451 ? -17.3°
Maximum altitude 18:34:37 34° 66° (ENE) 1,310 ? -17.6°
Drops below altitude 10° 18:39:21 10° 3° (N) 2,410 ? -18.4°
Sets 18:41:53 0° 355° (N) 3,354 ? -18.9°
